CST,Max TemperatureF,Mean TemperatureF,Min TemperatureF,Max Dew PointF,MeanDew PointF,Min DewpointF,Max Humidity, Mean Humidity, Min Humidity, Max Sea Level PressureIn, Mean Sea Level PressureIn, Min Sea Level PressureIn, Max VisibilityMiles, Mean VisibilityMiles, Min VisibilityMiles, Max Wind SpeedMPH, Mean Wind SpeedMPH, Max Gust SpeedMPH,PrecipitationIn, CloudCover, Events, WindDirDegrees
2013-1-1,32,21,10,19,14,7,91,76,55,30.14,30.08,30.01,10,10,7,13,7,,0.00,1,,261
2013-1-2,31,23,15,26,21,10,88,79,69,30.26,30.10,30.01,10,9,0,23,12,32,0.00,7,Snow,314
2013-1-3,28,20,11,19,13,6,89,75,56,30.32,30.25,30.17,10,10,7,16,9,23,0.00,3,Snow,272
2013-1-4,43,26,8,19,12,3,86,64,33,30.17,30.09,30.01,10,10,10,12,3,,0.00,0,,274
2013-1-5,38,26,14,23,16,9,84,68,49,30.23,30.09,29.97,10,10,10,26,10,36,0.00,0,,295
2013-1-6,40,26,13,23,17,10,88,68,39,30.23,30.11,29.89,10,10,10,18,8,26,0.00,0,,227
2013-1-7,44,32,19,24,19,16,87,68,34,30.02,29.92,29.86,10,10,10,8,4,,0.00,0,,257
2013-1-8,49,33,17,28,23,14,89,68,42,30.19,29.89,29.74,10,10,10,15,5,20,0.00,0,,283
2013-1-9,52,36,20,29,24,18,88,65,36,30.30,30.20,30.13,10,10,10,29,10,33,0.00,0,,214
2013-1-10,45,39,33,36,30,23,96,77,58,30.14,29.80,29.53,10,8,1,21,13,30,0.00,5,,186
2013-1-11,34,24,12,33,24,6,96,90,76,29.80,29.50,29.37,10,3,0,29,9,37,0.00,8,Fog-Snow,318
2013-1-12,13,6,-2,6,1,-7,83,76,67,30.10,29.99,29.80,10,10,3,23,12,30,0.00,2,Snow,305
2013-1-13,17,8,-2,8,0,-6,82,77,63,30.21,30.14,30.08,10,10,10,14,7,18,0.00,2,,294
2013-1-14,22,10,-3,9,2,-8,87,72,49,30.28,30.21,30.17,10,10,10,16,5,23,0.00,0,,247
2013-1-15,30,16,2,25,7,-3,86,67,43,30.17,30.06,29.94,10,10,5,16,7,21,0.00,2,Snow,249
2013-1-16,47,38,28,31,26,23,90,67,41,30.26,30.07,29.93,10,10,4,23,12,34,0.00,2,Snow,292
2013-1-17,50,36,22,24,21,17,84,63,31,30.41,30.31,30.15,10,10,10,13,6,18,0.00,0,,273
2013-1-18,55,40,24,23,19,16,80,49,21,30.14,29.98,29.90,10,10,10,18,7,23,0.00,0,,271
2013-1-19,52,38,24,24,21,18,88,53,25,30.26,30.10,29.90,10,10,10,21,11,33,0.00,0,,316
2013-1-20,33,25,17,26,16,11,91,76,54,30.34,30.26,30.13,10,10,7,21,6,29,0.00,5,Snow,344
2013-1-21,22,18,14,11,8,6,77,66,54,30.32,30.22,30.14,10,10,10,10,5,,0.00,7,Snow,21
2013-1-22,44,28,12,22,18,8,93,76,38,30.14,30.08,30.03,10,8,3,13,4,16,0.00,4,,181
2013-1-23,28,20,11,18,13,6,89,74,58,30.34,30.21,30.07,10,10,7,14,5,18,0.00,0,,30
2013-1-24,30,18,6,21,10,2,86,72,59,30.34,30.12,29.93,10,10,10,24,10,30,0.00,0,,185
2013-1-25,54,35,16,25,21,14,89,62,26,30.18,30.11,30.07,10,10,10,10,5,17,0.00,0,,264
2013-1-26,57,40,23,28,25,20,89,56,29,30.07,29.93,29.81,10,10,10,13,5,18,0.00,0,,196
2013-1-27,56,46,36,43,36,27,95,76,50,29.81,29.71,29.66,10,8,1,13,4,,0.00,5,Rain,231
2013-1-28,33,29,25,32,30,24,99,96,92,29.77,29.71,29.63,10,3,0,14,4,18,0.01,7,Fog-Snow,6
2013-1-29,32,27,22,28,24,20,94,87,78,29.84,29.73,29.66,10,10,4,22,8,29,0.01,6,Snow,321
2013-1-30,24,15,6,22,11,2,90,76,63,29.91,29.85,29.78,10,10,2,24,14,34,0.00,5,Snow,318
2013-1-31,19,11,3,14,3,-4,85,71,59,30.24,30.11,29.86,10,9,3,31,10,36,0.00,5,Snow,332